Zurück zum Katalog

ONEWEB-0362

AktivKommunikationPO
NORAD 49288·PAYLOAD·🇬🇧 United Kingdom

Gestartet Oct 14, 2021 von Vostochny Cosmodrome

Loading…

Nächste Überflüge (nächste 24 Stunden)

TLE

AktuellSource: CelesTrak SupGP

Epoche: Sep 14, 2026, 19:35 UTC

1 49288C 21090K   26257.81613843 -.00000587  00000+0 -14671-2 0  2578
2 49288  87.9103 287.1213 0001722  91.2587  20.2495 13.19723719    15

Verfolge ONEWEB-0362 in Echtzeit mit AllMySat

Download on the App Store